Content
SEND FEEDBACK

Daily
Averages
Monthly
Summary
United States of America

ANGELICA, NEW YORK


Home > North America > United States > New York
Elevation: 1603 feet     Latitude: 42 18N     Longitude: 078 00W

WEATHER
 
SELECT A DAY
Number of Records: 190,741;   Date Range: 2/2/00 - 11/23/14
 
SHARE

PRINT THIS DATA

[ ← Previous Day ]
WEATHER ALMANAC - FEBRUARY 13, 2013
[ Next Day → ]
[ °C ]   °F
Weather ElementAverageHighLow
Temperature31 °F39 °F (2:56 pm)25 °F (11:56 pm)
Dewpoint19.7 °F21 °F (2:56 pm)19 °F (1:56 am)
Humidity64 %78 % (11:56 pm)48 % (1:56 pm)
Barometer29.80 in29.92 in (1:56 am)29.69 in (3:56 pm)
Wind Speed5 mph10.4 mph (10:56 pm)
Weather ElementAverage
Visibility10 mi
Wind DirectionSW (223.9 °)

Weather ElementTotal
Precipitation---
Heating Degree Days33 (Base 65)
Averaged from 23 records on February 13, 2013
WEATHER CONDITIONS BREAKOUT
WIND DIRECTION BREAKOUT
WEATHER BY HOUR - FEBRUARY 13, 2013
[ °C ]   °F
Local TimeTemperatureDewpointHumidityBarometerVisibilityWind DirectionWind SpeedGust SpeedPrecipitationEventsConditions
1:56 AM27.0 °F19.0 °F72 %29.92 in10.0 miCalmOvercast
2:56 AM27.0 °F19.9 °F75 %29.90 in10.0 miWSW (240°)3.5 mphOvercast
3:56 AM27.0 °F19.9 °F75 %29.88 in10.0 miSSW (200°)3.5 mphOvercast
4:56 AM27.0 °F19.9 °F75 %29.88 in10.0 miWSW (250°)4.6 mphOvercast
5:56 AM28.0 °F19.9 °F72 %29.88 in10.0 miWSW (240°)3.5 mphOvercast
6:56 AM28.0 °F19.0 °F69 %29.87 in10.0 miWest (270°)8.1 mphOvercast
7:56 AM28.0 °F19.9 °F72 %29.86 in10.0 miWest (280°)4.6 mphOvercast
8:56 AM28.0 °F19.0 °F69 %29.85 in10.0 miWest (280°)8.1 mphOvercast
9:56 AM30.0 °F19.0 °F64 %29.83 in10.0 miNW (320°)5.8 mphPartly Cloudy
10:56 AM32.0 °F19.9 °F61 %29.81 in10.0 miVariable3.5 mphClear
11:56 AM34.0 °F19.9 °F56 %29.78 in10.0 miEast (100°)4.6 mphClear
12:56 PM35.1 °F19.0 °F52 %29.76 in10.0 miVariable4.6 mphClear
1:56 PM37.9 °F19.9 °F48 %29.73 in10.0 miWSW (250°)5.8 mphClear
2:56 PM39.0 °F21.0 °F49 %29.70 in10.0 miVariable5.8 mphClear
3:56 PM37.9 °F21.0 °F51 %29.69 in10.0 miCalmMostly Cloudy
4:56 PM36.0 °F21.0 °F55 %29.69 in10.0 miNNW (330°)4.6 mphPartly Cloudy
5:56 PM35.1 °F19.9 °F54 %29.70 in10.0 miNNW (340°)3.5 mphClear
6:56 PM34.0 °F19.9 °F56 %29.72 in10.0 miNNW (330°)4.6 mphOvercast
7:56 PM32.0 °F19.0 °F59 %29.74 in10.0 miNorth (360°)3.5 mphClear
8:56 PM30.0 °F19.9 °F66 %29.75 in10.0 miNNW (340°)8.1 mphOvercast
9:56 PM28.0 °F19.9 °F72 %29.77 in10.0 miNNW (340°)8.1 mphMostly Cloudy
10:56 PM27.0 °F19.0 °F72 %29.78 in10.0 miNNW (340°)10.4 mphClear
11:56 PM25.0 °F19.0 °F78 %29.80 in10.0 miNNW (340°)6.9 mphClear
Hourly data recorded from KELZ, located miles away from Angelica, New York







STORIES FROM OUR PARTNERS